Location: Unspecified
(34.1750°S, 150.8048°E)
Time: 16:19:16
(UTC+11:00)

BlueWalker 3 - Pass Details

Date: 01 October 2023
Orbit: 489 x 504 km, 53.2° (Epoch: 28 November)

Event Time Altitude Azimuth Distance (km) Brightness Sun altitude
Rises 19:46:53 0° 243° (WSW) 2,602 7.2 -10.6°
Reaches altitude 10° 19:49:39 10° 262° (W) 1,706 6.2 -11.2°
Maximum altitude 19:52:13 17° 304° (NW) 1,305 4.6 -11.7°
Drops below altitude 10° 19:54:46 10° 347° (NNW) 1,684 4.6 -12.2°
Sets 19:57:29 0° 7° (N) 2,553 5.3 -12.7°
